Tracking 34717 objects as of 16-Jul-2026
HD Live streaming from Space Station
objects crossing your sky now

SL-14 R/B

Track SL-14 R/B now!
10-day predictions


NORAD ID: 11087
Int'l Code: 1978-100D
Perigee: 1,694.4 km
Apogee: 1,708.2 km
Inclination: 82.5 °
Period: 120.3 minutes
Semi major axis: 8072 km
RCS: 5.2593 m2 (large)
Launch date: October 26, 1978
Source: Commonwealth of Independent States (former USSR) (CIS)
Launch site: PLESETSK MISSILE AND SPACE COMPLEX (PKMTR)

Note: This is a ROCKET BODY
Your satellite tracking list
Your tracking list is empty




NASA's NSSDC Master Catalog

Two Line Element Set (TLE):
1 11087U 78100D   26196.52434392 -.00000037  00000-0 -58246-3 0  9999
2 11087  82.5486  20.4392 0008583 247.7801 165.9669 11.97035473 85156
Source of the keplerian elements: AFSPC